TimeCST,TemperatureF,Dew PointF,Humidity,Sea Level PressureIn,VisibilityMPH,Wind Direction,Wind SpeedMPH,Gust SpeedMPH,PrecipitationIn,Events,Conditions,WindDirDegrees,DateUTC
12:15 AM,17.4,15.3,91,29.94,5.0,Calm,Calm,-,N/A,,Mostly Cloudy,0,2013-01-08 06:15:00
12:35 AM,14.0,11.3,89,29.94,0.5,Calm,Calm,-,N/A,Fog,Light Freezing Fog,0,2013-01-08 06:35:00
12:55 AM,12.4,9.7,89,29.93,0.2,Calm,Calm,-,N/A,Fog,Light Freezing Fog,0,2013-01-08 06:55:00
1:15 AM,13.5,11.1,90,29.92,1.0,Calm,Calm,-,N/A,,Mostly Cloudy,0,2013-01-08 07:15:00
1:35 AM,13.5,11.1,90,29.92,4.0,Calm,Calm,-,N/A,,Scattered Clouds,0,2013-01-08 07:35:00
1:55 AM,15.4,13.1,90,29.92,0.8,Calm,Calm,-,N/A,,Overcast,0,2013-01-08 07:55:00
2:15 AM,12.4,9.3,88,29.92,0.5,Calm,Calm,-,N/A,Fog,Light Freezing Fog,0,2013-01-08 08:15:00
2:35 AM,12.2,9.7,90,29.92,0.2,Calm,Calm,-,N/A,Fog,Light Freezing Fog,0,2013-01-08 08:35:00
2:55 AM,13.1,10.8,90,29.91,1.0,NNW,4.6,-,N/A,,Mostly Cloudy,330,2013-01-08 08:55:00
3:15 AM,11.8,9.1,89,29.91,7.0,NW,3.5,-,N/A,,Clear,310,2013-01-08 09:15:00
3:35 AM,12.6,10.0,90,29.90,7.0,NW,3.5,-,N/A,,Clear,320,2013-01-08 09:35:00
3:55 AM,12.4,9.7,89,29.89,7.0,Calm,Calm,-,N/A,,Scattered Clouds,0,2013-01-08 09:55:00
4:15 AM,12.9,10.2,89,29.88,1.2,Calm,Calm,-,N/A,,Overcast,0,2013-01-08 10:15:00
4:35 AM,13.8,11.5,90,29.87,0.2,Calm,Calm,-,N/A,Fog,Light Freezing Fog,0,2013-01-08 10:35:00
4:55 AM,14.0,11.5,90,29.87,0.5,Calm,Calm,-,N/A,Fog,Light Freezing Fog,0,2013-01-08 10:55:00
5:15 AM,14.4,12.0,90,29.87,0.2,Calm,Calm,-,N/A,Fog,Light Freezing Fog,0,2013-01-08 11:15:00
5:35 AM,14.7,12.2,90,29.87,0.2,Calm,Calm,-,N/A,Fog,Light Freezing Fog,0,2013-01-08 11:35:00
5:55 AM,13.8,11.3,90,29.87,0.2,Calm,Calm,-,N/A,Fog,Light Freezing Fog,0,2013-01-08 11:55:00
6:15 AM,12.9,10.4,90,29.87,0.2,Calm,Calm,-,N/A,Fog,Light Freezing Fog,0,2013-01-08 12:15:00
6:35 AM,12.2,9.5,89,29.87,0.2,Calm,Calm,-,N/A,Fog,Light Freezing Fog,0,2013-01-08 12:35:00
6:55 AM,11.8,9.1,89,29.88,0.2,Calm,Calm,-,N/A,Fog,Light Freezing Fog,0,2013-01-08 12:55:00
7:15 AM,11.7,8.6,88,29.87,0.2,SSE,3.5,-,N/A,Fog,Light Freezing Fog,160,2013-01-08 13:15:00
7:35 AM,11.3,8.6,89,29.87,0.2,Calm,Calm,-,N/A,Fog,Light Freezing Fog,0,2013-01-08 13:35:00
7:55 AM,11.3,8.6,89,29.87,0.2,Calm,Calm,-,N/A,Fog,Light Freezing Fog,0,2013-01-08 13:55:00
8:15 AM,11.8,9.1,89,29.88,1.8,South,4.6,-,N/A,,Mostly Cloudy,190,2013-01-08 14:15:00
8:35 AM,12.6,9.9,89,29.88,3.0,SSE,4.6,-,N/A,,Clear,160,2013-01-08 14:35:00
8:55 AM,14.4,12.0,90,29.89,3.0,South,4.6,-,N/A,,Clear,190,2013-01-08 14:55:00
9:15 AM,16.9,14.9,92,29.89,4.0,SSW,4.6,-,N/A,,Clear,210,2013-01-08 15:15:00
9:35 AM,21.4,19.6,93,29.89,5.0,Calm,Calm,-,N/A,,Clear,0,2013-01-08 15:35:00
9:55 AM,24.6,23.0,94,29.89,7.0,Calm,Calm,-,N/A,,Clear,0,2013-01-08 15:55:00
10:15 AM,24.1,22.3,93,29.89,5.0,Calm,Calm,-,N/A,,Clear,0,2013-01-08 16:15:00
10:35 AM,23.9,22.1,93,29.89,5.0,Calm,Calm,-,N/A,,Clear,0,2013-01-08 16:35:00
10:55 AM,26.1,24.6,94,29.88,7.0,SW,4.6,-,N/A,,Clear,220,2013-01-08 16:55:00
11:15 AM,28.4,27.1,95,29.87,10.0,SSW,6.9,-,N/A,,Clear,210,2013-01-08 17:15:00
11:55 AM,30.2,28.9,95,29.85,10.0,SW,11.5,-,N/A,,Clear,230,2013-01-08 17:55:00
12:15 PM,31.1,30.2,96,29.84,10.0,SSW,12.7,18.4,N/A,,Clear,210,2013-01-08 18:15:00
12:35 PM,31.8,30.6,95,29.84,10.0,SW,13.8,-,N/A,,Clear,220,2013-01-08 18:35:00
12:55 PM,33.3,31.5,93,29.83,10.0,SW,17.3,-,N/A,,Clear,220,2013-01-08 18:55:00
1:15 PM,35.1,28.6,77,29.83,10.0,SW,18.4,24.2,N/A,,Clear,220,2013-01-08 19:15:00
1:55 PM,36.0,28.4,74,29.84,10.0,SW,13.8,20.7,N/A,,Clear,220,2013-01-08 19:55:00
2:15 PM,36.3,28.2,72,29.85,10.0,SW,12.7,19.6,N/A,,Clear,220,2013-01-08 20:15:00
2:35 PM,35.6,28.2,75,29.85,10.0,SW,12.7,-,N/A,,Clear,220,2013-01-08 20:35:00
2:55 PM,35.6,28.2,75,29.86,10.0,SW,10.4,-,N/A,,Clear,220,2013-01-08 20:55:00
3:15 PM,36.0,28.0,73,29.87,10.0,SW,10.4,17.3,N/A,,Clear,230,2013-01-08 21:15:00
3:35 PM,35.4,28.0,75,29.89,10.0,SW,10.4,-,N/A,,Clear,230,2013-01-08 21:35:00
3:55 PM,35.1,27.9,75,29.91,10.0,SW,10.4,-,N/A,,Clear,220,2013-01-08 21:55:00
4:15 PM,34.7,28.0,77,29.92,10.0,SW,10.4,-,N/A,,Clear,230,2013-01-08 22:15:00
4:35 PM,34.0,28.0,79,29.92,10.0,SW,6.9,-,N/A,,Clear,230,2013-01-08 22:35:00
4:55 PM,34.2,28.0,78,29.93,10.0,SW,8.1,-,N/A,,Clear,230,2013-01-08 22:55:00
5:15 PM,34.0,28.4,80,29.93,10.0,WSW,6.9,-,N/A,,Clear,240,2013-01-08 23:15:00
5:35 PM,34.2,28.4,79,29.94,10.0,SW,9.2,-,N/A,,Clear,230,2013-01-08 23:35:00
5:55 PM,34.7,28.4,78,29.94,10.0,WSW,8.1,-,N/A,,Scattered Clouds,240,2013-01-08 23:55:00
6:15 PM,34.7,28.8,79,29.95,10.0,WSW,8.1,-,N/A,,Scattered Clouds,240,2013-01-09 00:15:00
6:35 PM,33.8,28.4,81,29.96,10.0,SSW,9.2,-,N/A,,Clear,210,2013-01-09 00:35:00
6:55 PM,33.8,28.6,81,29.98,10.0,SW,9.2,-,N/A,,Clear,220,2013-01-09 00:55:00
7:15 PM,32.9,28.4,84,30.00,10.0,SW,8.1,-,N/A,,Clear,230,2013-01-09 01:15:00
7:35 PM,34.2,28.4,79,30.00,10.0,SW,11.5,-,N/A,,Clear,230,2013-01-09 01:35:00
7:55 PM,33.4,28.2,81,30.02,10.0,SW,9.2,-,N/A,,Clear,230,2013-01-09 01:55:00
8:15 PM,32.9,28.0,82,30.03,10.0,SSW,9.2,-,N/A,,Clear,210,2013-01-09 02:15:00
8:35 PM,32.0,27.5,83,30.05,10.0,SSW,8.1,-,N/A,,Scattered Clouds,210,2013-01-09 02:35:00
8:55 PM,32.0,27.5,83,30.06,10.0,SSW,5.8,-,N/A,,Clear,210,2013-01-09 02:55:00
9:15 PM,32.2,28.0,85,30.07,10.0,SW,9.2,-,N/A,,Scattered Clouds,230,2013-01-09 03:15:00
9:35 PM,32.4,28.0,84,30.08,10.0,SW,10.4,-,N/A,,Scattered Clouds,230,2013-01-09 03:35:00
9:55 PM,33.4,28.4,82,30.09,10.0,WSW,8.1,-,N/A,,Clear,240,2013-01-09 03:55:00
10:15 PM,32.0,27.5,83,30.09,10.0,SW,6.9,-,N/A,,Clear,230,2013-01-09 04:15:00
10:35 PM,31.8,27.5,84,30.10,10.0,SSW,4.6,-,N/A,,Clear,210,2013-01-09 04:35:00
11:55 PM,27.5,25.5,92,30.13,10.0,Calm,Calm,-,N/A,,Clear,0,2013-01-09 05:55:00